Salamonie Lake Weather Center

Moon Phase Calendar



Salamonie Lake Water Level
Online Cameras

 


      

Current Conditions in Harlansburg
4/23/2021 6:39:36 AM

35°F
Feels Like 32
Clear
Humidity
69%
Pressure
30.09"
Wind
3.4 mph (SW)
Dew Point
26°F
UV Index
0/10 (Low)
Visibility
6 mi

Hourly Forecast

Date & Time Fri, Apr 23
6:00 AM
Fri, Apr 23
7:00 AM
Fri, Apr 23
8:00 AM
Fri, Apr 23
9:00 AM
Fri, Apr 23
10:00 AM
Fri, Apr 23
11:00 AM
Fri, Apr 23
12:00 PM
Fri, Apr 23
1:00 PM
Fri, Apr 23
2:00 PM
Fri, Apr 23
3:00 PM
Fri, Apr 23
4:00 PM
Fri, Apr 23
5:00 PM
Fri, Apr 23
6:00 PM
Fri, Apr 23
7:00 PM
Fri, Apr 23
8:00 PM
Fri, Apr 23
9:00 PM
Fri, Apr 23
10:00 PM
Fri, Apr 23
11:00 PM
Sat, Apr 24
12:00 AM
Sat, Apr 24
1:00 AM
Sat, Apr 24
2:00 AM
Sat, Apr 24
3:00 AM
Sat, Apr 24
4:00 AM
Sat, Apr 24
5:00 AM
Sat, Apr 24
6:00 AM
Sat, Apr 24
7:00 AM
Sat, Apr 24
8:00 AM
Sat, Apr 24
9:00 AM
Sat, Apr 24
10:00 AM
Sat, Apr 24
11:00 AM
Sat, Apr 24
12:00 PM
Sat, Apr 24
1:00 PM
Sat, Apr 24
2:00 PM
Sat, Apr 24
3:00 PM
Sat, Apr 24
4:00 PM
Sat, Apr 24
5:00 PM
Sat, Apr 24
6:00 PM
Sat, Apr 24
7:00 PM
Sat, Apr 24
8:00 PM
Sat, Apr 24
9:00 PM
Sat, Apr 24
10:00 PM
Sat, Apr 24
11:00 PM
Sun, Apr 25
12:00 AM
Sun, Apr 25
1:00 AM
Sun, Apr 25
2:00 AM
Sun, Apr 25
3:00 AM
Sun, Apr 25
4:00 AM
Sun, Apr 25
5:00 AM
Condition
Clouds

Clear

Clouds

Clouds

Clouds

Clouds

Clouds

Clouds

Clouds

Clouds

Clouds

Clouds

Clouds

Clouds

Clouds

Clouds

Clouds

Clouds

Clouds

Clouds

Clouds

Rain

Rain

Rain

Rain

Rain

Rain

Rain

Rain

Rain

Rain

Rain

Rain

Rain

Rain

Clouds

Rain

Rain

Clouds

Clouds

Clouds

Clouds

Clouds

Clouds

Clouds

Clouds

Clouds

Clouds
Temperature 35°F35°F36°F38°F41°F46°F52°F54°F55°F56°F57°F57°F57°F55°F51°F50°F49°F48°F47°F47°F46°F46°F46°F46°F46°F45°F46°F46°F46°F47°F47°F47°F47°F48°F49°F48°F48°F48°F48°F48°F47°F48°F47°F45°F45°F44°F41°F39°F
Feels Like 29°F29°F30°F32°F35°F41°F49°F51°F52°F54°F54°F55°F55°F53°F49°F47°F46°F44°F43°F43°F43°F43°F43°F43°F42°F42°F42°F42°F43°F44°F44°F45°F46°F45°F46°F47°F47°F46°F46°F45°F45°F44°F43°F40°F39°F37°F33°F31°F
Cloudiness 15%1%17%41%60%79%78%66%57%14%13%15%22%33%44%100%100%100%100%100%100%100%100%100%100%100%100%100%100%100%100%100%100%100%100%100%100%100%100%100%100%100%99%93%90%100%100%99%
Visibility 6 mi6 mi6 mi6 mi6 mi6 mi6 mi6 mi6 mi6 mi6 mi6 mi6 mi6 mi6 mi6 mi6 mi6 mi6 mi6 mi6 mi6 mi6 mi6 mi4 mi4 mi6 mi6 mi6 mi5 mi6 mi6 mi6 mi6 mi6 mi6 mi6 mi6 mi6 mi6 mi6 mi6 mi6 mi6 mi6 mi6 mi6 mi6 mi
Precipitation 0%0%0%0%0%0%0%0%0%0%0%0%0%0%0%0%0%0%0%6%19%52%61%86%92%91%95%91%91%89%85%89%96%96%92%72%91%87%87%4%0%0%0%0%0%0%0%0%
Humidity 71%69%70%67%66%59%52%48%45%44%44%44%46%58%68%73%78%82%84%87%89%91%94%94%95%96%96%95%94%93%94%93%93%93%92%94%96%97%97%97%97%97%96%95%95%90%90%89%
Dew Point 27°F26°F27°F29°F31°F33°F34°F34°F35°F35°F35°F36°F37°F40°F41°F42°F42°F42°F43°F43°F43°F44°F44°F44°F44°F44°F44°F44°F44°F45°F45°F45°F46°F46°F46°F47°F47°F47°F47°F47°F47°F47°F46°F44°F43°F41°F38°F36°F
Pressure 30.09"30.09"30.09"30.12"30.12"30.15"30.12"30.12"30.09"30.09"30.06"30.03"30"30.03"30.03"30.03"30.03"30.03"30.03"30"29.97"29.97"29.97"29.94"29.94"29.91"29.91"29.91"29.88"29.88"29.85"29.85"29.83"29.83"29.83"29.8"29.8"29.8"29.8"29.83"29.83"29.85"29.85"29.88"29.88"29.91"29.94"29.97"
Wind Speed 7.8 mph7.3 mph6.9 mph8.3 mph9.2 mph11.3 mph10.7 mph11.6 mph11.8 mph11.9 mph11.3 mph10.6 mph9.6 mph9.8 mph8.1 mph6.2 mph6.6 mph7.2 mph8.5 mph7.2 mph6.7 mph7 mph4.8 mph5.1 mph6.2 mph7 mph7.7 mph8 mph7.1 mph6 mph4.9 mph5 mph4.5 mph6.5 mph6 mph4.1 mph3.5 mph4.1 mph4.8 mph5.5 mph6 mph7.4 mph10 mph10.1 mph12 mph15.4 mph13.8 mph13.4 mph
Wind
Direction
237°
WSW
240°
WSW
229°
SW
234°
SW
222°
SW
227°
SW
217°
SW
216°
SW
212°
SSW
217°
SW
221°
SW
222°
SW
219°
SW
225°
SW
214°
SW
195°
SSW
173°
S
177°
S
190°
S
187°
S
185°
S
184°
S
178°
S
148°
SSE
141°
SE
147°
SSE
141°
SE
136°
SE
137°
SE
140°
SE
127°
SE
131°
SE
152°
SSE
143°
SE
181°
S
209°
SSW
237°
WSW
265°
W
282°
WNW
289°
WNW
288°
WNW
281°
W
297°
WNW
303°
WNW
311°
NW
326°
NW
327°
NNW
332°
NNW

Daily Forecast

Date High Low Precip. Humidity
Today
Apr 23

Clouds
57 °F
35 °F
0%
48%
Saturday
Apr 24

Rain
49 °F
45 °F
96%
93%
Sunday
Apr 25

Clouds
51 °F
38 °F
0%
47%
Monday
Apr 26

Clouds
64 °F
38 °F
0%
46%
Tuesday
Apr 27

Clouds
79 °F
54 °F
0%
55%
Wednesday
Apr 28

Rain
69 °F
61 °F
100%
92%
Thursday
Apr 29

Rain
63 °F
42 °F
100%
84%
Friday
Apr 30

Clouds
41 °F
39 °F
1%
76%
Saturday
May 1

Rain
48 °F
36 °F
100%
81%
Sunday
May 2

Rain
60 °F
44 °F
96%
77%
Monday
May 3

Rain
55 °F
51 °F
69%
84%
Tuesday
May 4

Rain
68 °F
52 °F
90%
67%
Wednesday
May 5

Clouds
73 °F
51 °F
0%
58%
Thursday
May 6

Clouds
76 °F
56 °F
0%
52%
Friday
May 7

Rain
78 °F
61 °F
76%
72%
Saturday
May 8

Rain
77 °F
64 °F
55%
65%

Temperature 8-14 Day Outlook



Precipitation 8-14 Day Outlook




Quick Links
Salamonie Lake News
Salamonie Lake Photos
Salamonie Lake Videos




About Us
Contact Us
Site Map
Search Site
Advertise With Us
   
Salamonie.LakesOnline.com
THE SALAMONIE LAKE WEBSITE

Copyright 2021, Lakes Online
Privacy    |    Legal